Lid_Strength_Index
-0 0 0 -0 -0 0 0 -0 -2 -1 -1 -1 -1 -1 -1 -1 -0 -1 -0 -1 -0 0
-0 -1 -1 -1 -1 -0 -1 -1 -1 -1 -1 -1 -1 -1 -1 -0 -1 -1 -1 -1 -1 0
-0 -0 -0 -1 -0 -1 -1 -1 -1 -1 -1 -1 -1 -1 -1 -0 -1 -0 -0 -0 -1 -0
-0 -0 -1 -0 -0 -1 -1 -1 -0 -0 -0 -0 -0 -1 -0 -0 -0 -0 0 -0 -0 -0
-0 -0 -0 -0 -0 -1 -0 -1 -0 -0 -0 -0 -0 -0 -0 0 0 1 0 0 0 1
0 0 0 0 0 -0 0 0 -0 -0 -0 0 -0 -0 -0 0 0 0 0 0 1 0
1 1 1 1 1 1 0 0 0 -0 -0 -0 -0 -0 -0 0 0 0 0 0 0 0
1 1 1 1 1 0 -0 0 0 0 0 0 0 0 -0 -0 0 1 1 0 0 0
2 1 1 1 1 1 1 1 1 1 1 1 1 4 5 2 0 0 0 1 0 0
2 2 2 2 2 2 2 1 1 1 1 1 1 4 6 5 1 1 1 1 1 1
3 3 3 3 3 2 2 2 2 2 1 1 2 6 7 7 3 3 2 1 1 2
4 4 4 3 3 3 3 3 4 3 3 4 4 7 7 7 6 6 5 4 3 3
4 4 4 4 5 5 5 6 6 6 6 7 7 9 10 9 8 7 6 5 4 6
4 5 6 6 6 8 9 10 10 11 11 10 10 9 10 10 9 8 7 7 5 3